Regional Weather Roundup
Issued by NWS Green Bay, WI

Home | Current Version | Previous Version | Graphics & Text | Print | Product List | Glossary Off
Versions: 1 2 3 4 5 6 7 8 9 10 11 12 13 14 15 16 17 18 19 20 21 22 23 24 25 26 27 28 29 30 31 32 33 34 35 36 37 38 39 40 41 42 43 44 45 46 47 48 49 50

000
ASUS43 KGRB 250711
RWRGRB

NORTH-CENTRAL AND NORTHEAST WISCONSIN REGIONAL WEATHER ROUNDUP
NATIONAL WEATHER SERVICE GREEN BAY WI
200 AM CDT TUE APR 25 2017

WIZ005-009-010>012-018-019-250800-
NORTH CENTRAL WISCONSIN

CITY           SKY/WX    TMP DP  RH WIND       PRES   REMARKS
IRONWOOD       CLOUDY    57  34  41 SE10      29.65F
MANITOWISH WTR CLOUDY    52  32  46 SE10      29.68S
ARBOR VITAE    CLOUDY    52  33  48 SE8       29.69F
EAGLE RIVER    CLOUDY    48  32  54 SE6       29.72S
LAND O LAKES   CLOUDY    48  33  56 SE7       29.74S
RHINELANDER    CLOUDY    51  35  54 E8        29.71F
PHILLIPS       CLOUDY    55  35  46 SE7       29.66F
ANTIGO         CLOUDY    47  35  63 SE13      29.72F
TOMAHAWK       CLOUDY    53  30  41 CALM      29.69F
MERRILL        CLOUDY    56  32  40 SE7       29.69F
$$

WIZ013-073-250800-
NORTHEAST WISCONSIN

CITY           SKY/WX    TMP DP  RH WIND       PRES   REMARKS
IRON MOUNTAIN  CLOUDY    43  34  70 E6        29.76F
MARINETTE      CLOUDY    43  38  82 SW3       29.81S
OCONTO         CLOUDY    45  36  71 E3        29.80R
$$

WIZ017-030-035>037-045-250800-
CENTRAL WISCONSIN

CITY           SKY/WX    TMP DP  RH WIND       PRES   REMARKS
MEDFORD        CLOUDY    55  34  45 SE7       29.66F
WAUSAU         CLOUDY    58  32  37 SE10      29.68F
MOSINEE        CLOUDY    55  32  41 SE8       29.70F
MARSHFIELD     CLOUDY    58  32  37 S9        29.66F
WISC RAPIDS    NOT AVBL
STEVENS POINT  CLOUDY    59  30  33 SE12      29.70F
WAUPACA        PTCLDY    60  29  30 E13       29.72F
SHAWANO        CLOUDY    51  41  69 NE6       29.74F
CLINTONVILLE   CLOUDY    61  30  31 S13       29.73R
WAUTOMA        CLOUDY    60  32  34 SE5       29.72F
$$

WIZ038-039-048-051-250800-
FOX VALLEY

CITY           SKY/WX    TMP DP  RH WIND       PRES   REMARKS
NWS GREEN BAY  CLOUDY    51  38  60 NE7       29.75F
APPLETON       CLOUDY    55  28  35 E5        29.73S
OSHKOSH        CLOUDY    58  33  39 SE10      29.72F
FOND DU LAC    PTCLDY    56  33  42 SE10      29.73F
$$

WIZ022-050-052-250800-
EAST CENTRAL WISCONSIN

CITY           SKY/WX    TMP DP  RH WIND       PRES   REMARKS
EPHRAIM        FAIR      51  40  65 S6        29.78S
WASHINGTON ISL PTSUNNY   49  39  67 SE5       29.80S
STURGEON BAY   CLOUDY    52  39  61 W8        29.82R
MANITOWOC      CLOUDY    51  35  54 SE10      29.77S
SHEBOYGAN      CLOUDY    51  38  60 SE9       29.76F
$$

LMZ563-521-522-541>543-250800-
LAKESHORE

STATION/POSITION TIME  TEMP    WIND        PRES    VSBY  WAVE
                       AIR SEA DIR/SP/G                  HT/PER
                 (UTC) (F)     (DEG/KT/KT) (MB)    (MI)  (FT/S)
SHEBOYGAN LKSHOR 0700   49     170/  5/  5 1008.1F
KEWAUNEE LKSHORE 0648          200/  5/  6 1008.1F
NORTHPORT PIER   0640   44     180/  4/  8 1008.8F
N MID LAKE BUOY  0650   43 37  130/ 16/ 17 1010.0F         2/ 5
CHAMBERS ISLAND  0630   43      CALM  /  2 1009.1R
MENOMINEE LKSHOR 0648           30/  1/  3 1008.6R
$$




USA.gov is the U.S. government's official web portal to all federal, state and local government web resources and services.